Regional Weather Roundup
Issued by NWS

Home | Current Version | Previous Version | Graphics & Text | Print | Product List | Glossary On
Versions: 1 2 3 4 5 6 7 8 9 10 11 12 13 14 15 16 17 18 19 20 21 22 23 24 25 26 27 28 29 30 31 32 33 34 35 36 37 38 39 40 41 42 43 44 45 46 47 48 49 50
000
ASUS43 KDTX 280101
RWRMI
MICHIGAN HOURLY REGIONAL WEATHER ROUNDUP
NATIONAL WEATHER SERVICE DETROIT/PONTIAC MI
900 PM EDT THU AUG 27 2015

NOTE: "FAIR" INDICATES FEW OR NO CLOUDS BELOW 12,000 FEET WITH NO
SIGNIFICANT WEATHER AND/OR OBSTRUCTION TO VISIBILITY.

MIZ047>049-052>055-059>063-066>070-074>076-081>083-280200-
SOUTHEAST LOWER MICHIGAN

CITY           SKY/WX    TMP DP  RH WIND       PRES   REMARKS
ADRIAN         CLEAR     57  54  89 CALM      30.19R
ALMA           CLEAR     59  56  90 S3        30.16R
ANN ARBOR      CLEAR     60  53  77 NE3       30.18R
BAD AXE        CLEAR     56  53  89 CALM      30.17R
CARO           CLEAR     56  55  95 CALM      30.17R FOG
DETROIT CITY   CLOUDY    63  53  70 SE3       30.18R
DETROIT        MOCLDY    63  53  70 N3        30.18R
FLINT          CLEAR     60  53  77 S3        30.18R
GROSSE ILE     CLEAR     63  55  77 E3        30.17R
HILLSDALE      CLEAR     58  56  95 CALM      30.19R
HOWELL         CLEAR     58  53  82 CALM      30.18R HAZE

CITY           SKY/WX    TMP DP  RH WIND       PRES   REMARKS
JACKSON        CLEAR     58  54  86 CALM      30.18R
LAMBERTVILLE   PTCLDY    59  55  85 CALM      30.18R
LANSING        CLEAR     60  53  77 S5        30.18R
LAPEER         FAIR      56  54  93 CALM      30.18S
MASON          CLEAR     55  52  88 CALM      30.18R FOG
MONROE         PTCLDY    58  54  88 CALM      30.17R
MT. CLEMENS    CLOUDY    63  55  76 S3        30.17R
PONTIAC        PTCLDY    59  52  77 CALM      30.17S
PORT HOPE        N/A     57  53  86 S3        30.15S
PORT HURON     CLOUDY    59  57  94 CALM      30.18R
TRI CITIES     CLEAR     63  55  75 S7        30.17R
MIDLAND        FAIR      63  55  73 CALM      30.15R
TROY           CLOUDY    63  55  74 CALM      30.20R HAZE
SAGINAW HB     CLEAR     59  55  88 S3        30.16R
$$
MIZ043>046-050>051-056>058-064>065-071>073-077>080-280200-
SOUTHWEST LOWER MICHIGAN

CITY           SKY/WX    TMP DP  RH WIND       PRES   REMARKS
BATTLE CREEK   CLEAR     62  54  74 SE7       30.18R
BENTON HARBOR  CLEAR     59  56  89 CALM      30.14F
BIG RAPIDS     CLOUDY    63  59  88 CALM      30.14S
COLDWATER      CLEAR     60  56  85 CALM      30.18R
FREMONT        FAIR      61  59  94 CALM      30.15R
HOLLAND        CLEAR     60  56  86 CALM      30.16S
GRAND RAPIDS   PTCLDY    63  56  78 S5        30.16R
IONIA          FAIR      62  55  75 S6        30.16R
KALAMAZOO      MOCLDY    63  55  75 E3        30.17R
LUDINGTON      CLEAR     64  58  83 S3        30.14S
MARSHALL       CLEAR     57  54  88 CALM      30.18R
MOUNT PLEASANT CLEAR     65  56  70 S3        30.15R
MUSKEGON       PTCLDY    63  55  75 CALM      30.15S
SOUTH HAVEN    CLEAR     59  56  88 CALM      30.15S
$$
MIZ016>042-280200-
NORTHERN LOWER MICHIGAN

CITY           SKY/WX    TMP DP  RH WIND       PRES   REMARKS
ALPENA         CLEAR     56  52  86 SE3       30.16R
BEAVER ISLAND  CLEAR     60  58  92 SW5       30.12S
BELLAIRE       CLEAR     61  57  88 CALM      30.13S
CADILLAC       CLEAR     62  57  83 W3        30.14S
CHARLEVOIX     CLEAR     62  58  88 SW3       30.15S
FRANKFORT      CLEAR     63  59  88 CALM      30.13R
GAYLORD        CLEAR     64  55  72 CALM      30.14R
GRAYLING       CLOUDY    62  58  86 CALM      30.15R
HARBOR SPRINGS CLEAR     60  57  89 CALM      30.13S
HOUGHTON LAKE  MOCLDY    62  57  83 SE5       30.15R
MANISTEE       CLEAR     63  55  77 CALM      30.14S
OSCODA         CLEAR     58  53  83 CALM      30.16R
PELLSTON       CLEAR     58  55  90 CALM      30.13R
ROGERS CITY    CLEAR     61  55  80 SE7       30.15R
TRAVERSE CITY  PTCLDY    64  56  75 CALM      30.12R
$$
MIZ007>008-015-280200-
EASTERN UPPER MICHIGAN

CITY           SKY/WX    TMP DP  RH WIND       PRES   REMARKS
KINROSS        CLEAR     57  54  88 S5        30.12R
MACKINAC ISLAN CLEAR     58  52  79 SE8       30.12S
NEWBERRY       CLEAR     57  56  95 S5        30.10S
S. S. MARIE    CLEAR     60  53  77 S5        30.11R
MUNISING         N/A     65  56  72 S5        30.07R
$$
MIZ004>006-011>014-085-280200-
CENTRAL UPPER MICHIGAN

CITY           SKY/WX    TMP DP  RH WIND       PRES   REMARKS
MANISTIQUE     MOCLDY    60  58  93 S6        30.09S
ESCANABA       CLEAR     63  57  82 S6        30.08S
MENOMINEE      CLEAR     63  54  72 S6        30.08S
SAWYER-GWINN   CLEAR     64  59  82 S10       30.08R
$$
MIZ001>003-009>011-084-280200-
WESTERN UPPER MICHIGAN

CITY           SKY/WX    TMP DP  RH WIND       PRES   REMARKS
IRON MOUNTAIN  CLEAR     63  57  81 S5        30.07R
HOUGHTON       CLEAR     56  51  84 E5        30.04R
COPPER HARBOR    N/A     58  53  84 VRB6      30.03S
IRONWOOD       CLEAR     68  57  68 S3        30.01S
$$

ABBREVIATIONS USED IN REMARKS
   TC - TEMPERATURE IN CELSIUS
  WCI - WIND CHILL INDEX
   HX - HEAT INDEX
  VSB - VISIBILITY




USA.gov is the U.S. government's official web portal to all federal, state and local government web resources and services.